网站地图

URL Priority Change Frequency LastChange
树脂产品 1.0 Daily 2024-05-25 01:03:14
应用领域 1.0 Daily 2024-05-25 01:03:14
华体网下载 1.0 Daily 2024-05-25 01:03:14
关于我们 1.0 Daily 2024-05-25 01:03:14
联系我们 1.0 Daily 2024-05-25 01:03:14
网站地图 1.0 Daily 2024-05-25 01:03:14
【48812】夏天别让孩子玩“水精灵”实为含毒树脂(图) 0.8 Daily 2024-05-25 10:07:24
【48812】2022年我国EVA树脂商场现状及商场规模猜测剖析 0.8 Daily 2024-05-25 10:07:16
【48812】2007永久的思念 0.8 Daily 2024-05-25 10:07:08
【48812】离子交换树脂再生剂(软水盐)产品报价动态(2024-05-17) 0.8 Daily 2024-05-25 10:06:27
【48812】离子交换树脂再生剂(软水盐)产品报价动态(2023-10-01) 0.8 Daily 2024-05-25 10:06:19
【48812】鞍钢股份获得一种钢铁联合企业归纳废水的零排放体系专利完成冶金工业生产归纳废水零排放的方针 0.8 Daily 2024-05-25 10:06:10
Word]软化水树脂罐 0.8 Daily 2024-05-25 10:06:02
To B新引擎 商净新生态 2024年海尔商用净水青岛战略发布 0.8 Daily 2024-05-25 10:05:55
【48812】自主研发配备海外“得宠” 0.8 Daily 2024-05-25 10:05:47
江苏常青树新材料科技股份有限公司 0.8 Daily 2024-05-25 10:05:01
常青科技:于上交所成功上市技术创新实现国产替代 0.8 Daily 2024-05-24 07:03:50
【48812】【星光闪烁】2017西湖国际海水淡化与水再使用大会议程首发阵型 0.8 Daily 2024-05-24 07:03:42
常青科技董秘回复:公司是国内二乙烯苯特种单体领域的主要企业该产品主要用于生产离子交换树脂 0.8 Daily 2024-05-24 07:03:24
讲解]软化水树脂罐 0.8 Daily 2024-05-24 07:03:16
【48812】争气股份:公司是国内抢先的可以规模化出产离子交换与吸附树脂的企业 0.8 Daily 2024-05-24 07:00:33
争光股份成功过会 争创国际一流的离子交换与吸附树脂制造商 0.8 Daily 2024-05-24 07:00:25
【48812】阴离子交流树脂产品报价动态(2023-12-05) 0.8 Daily 2024-05-24 07:00:16
争光股份:企业主要从事离子交换与吸附树脂的研发、生产及销售 0.8 Daily 2024-05-24 07:00:08
【48812】离子交换树脂再生剂(软水盐)产品报价动态(2024-01-27) 0.8 Daily 2024-05-23 01:59:37
【48812】离子交换树脂奠基人——何炳林 0.8 Daily 2024-05-23 01:59:18
【48812】买三免一!沙拉酱番茄酱等各种酱料揉捏瓶好价! 0.8 Daily 2024-05-23 01:59:09
安全节能商用净水器热交换技术助您享受纯净水源 0.8 Daily 2024-05-23 01:59:01
“科学”加工与道德绑架日本核污水排放的舆论战 0.8 Daily 2024-05-21 10:13:48
【48812】科海思离子交流树脂体系为公司能够供给更高效、可继续、高回报的水处理解决方案 0.8 Daily 2024-05-21 10:13:11
【48812】研学游|留念何炳林院士诞辰100周年——沙湾古镇专题研学游 0.8 Daily 2024-05-21 10:13:04
【48812】《原神》每日树脂分配心得 0.8 Daily 2024-05-21 10:12:55
堪比“股神”社保基金持股公司最高涨超2500% 0.8 Daily 2024-05-21 10:12:19
湖南投资:新材料新贵赶超舒卡 0.8 Daily 2024-05-21 10:12:12
安大年薪20万招教授 0.8 Daily 2024-05-21 10:12:04
【48812】开能华宇携华宇牌树脂罐露脸2017上海国际水展 0.8 Daily 2024-05-21 10:11:54
【48812】树脂罐爆裂 一工人身亡 0.8 Daily 2024-05-21 10:11:46
【48812】西门子海水淡化技能能耗折半 0.8 Daily 2024-05-20 07:08:47
健帆生物:200亿市值只靠一种产品支撑这只“独角兽”能跑多远? 0.8 Daily 2024-05-20 07:08:39
回收PE树脂厂家 0.8 Daily 2024-05-20 07:07:56
【48812】离子交换树脂再生剂(软水盐)产品报价动态(2024-05-19) 0.8 Daily 2024-05-20 07:06:56
阳离子交换树脂商品报价动态(2023-03-27) 0.8 Daily 2024-05-20 07:06:48
【48812】世界油价飙涨 布伦特原油期货打破每桶100美元关口 0.8 Daily 2024-05-20 07:06:39
【48812】瓜州:直饮水入户让大众吃上“放心水” 0.8 Daily 2024-05-20 07:06:31
新股上演“蹦极跳”打新未来要怎么玩? 0.8 Daily 2024-05-19 03:26:20
【48812】Wake UP! BluePro(博乐宝)新一代洗脸神器行将全球出售 0.8 Daily 2024-05-19 03:26:11
【48812】争气股份董秘回复:现在公司离子交换与吸附树脂产品在环保范畴首要运用在于高浓度、难降解有机物和重金属污染的工业废水处理 0.8 Daily 2024-05-19 03:25:48
【48812】争气股份:公司的离子交换树脂产品还可应用于高端工业水、食物及饮用水等范畴 0.8 Daily 2024-05-19 03:25:39
【48812】离子交换树脂再生剂(软水盐)产品报价动态(2024-05-05) 0.8 Daily 2024-05-19 03:25:31
烧水壶里都是水垢要不要装一台软水机 0.8 Daily 2024-05-19 03:25:19
日本核污水引发全球争议我国高新技术是如何来处理核污水? 0.8 Daily 2024-05-18 09:37:52
【48812】文 谱雨打芭蕉 武 助造 0.8 Daily 2024-05-18 09:37:45
美的集团获得发明专利授权:“软水设备的杀菌操控方法及装置” 0.8 Daily 2024-05-18 09:37:36
2022武汉国际水科技博览会暨泵阀管道、水处理及城镇水务展(武汉水展) 0.8 Daily 2024-05-18 09:37:28
涂料_建材涂料_信息-建材网第345页 0.8 Daily 2024-05-18 09:37:20
深涂学会 行业资讯‖对后疫情时代的粉末涂料发展的一些思考 0.8 Daily 2024-05-18 09:37:12
【48812】离子交换树脂再生剂(软水盐)产品报价动态(2023-09-30) 0.8 Daily 2024-05-18 09:36:43
【48812】王方教授莅临莱特莱德观赏辅导 0.8 Daily 2024-05-18 09:36:35
【48812】了解塑料原料 0.8 Daily 2024-05-18 09:36:27
【48812】离子交换树脂再生剂(软水盐)产品报价动态(2024-03-28) 0.8 Daily 2024-05-18 09:36:19
铁锰设备是如何去掉铁锰元素让水质合格的? 0.8 Daily 2024-05-16 04:52:45
科海思离子交换深度处理技术助力江苏PCB制造公司实现含镍废水零排放 0.8 Daily 2024-05-16 04:52:38
【48812】包头供水最新回复!原因已查明! 10条定制公交!直达!…… 0.8 Daily 2024-05-16 04:52:29
【48812】华中农大近期科学研讨进展 0.8 Daily 2024-05-16 04:52:21
额济纳旗荔鹏矿业有限责任公司丰泰选矿厂(2000td萤石)及尾矿库、配套设施建设项目环境影响评价第二次公示 0.8 Daily 2024-05-16 04:52:13
危废处置细分市场需求广阔废炼油催化剂综合化利用潜力巨大 0.8 Daily 2024-05-16 04:51:39
【48812】为缓解气候灾祸世界社会或将到达逐渐筛选化石燃料的协议 0.8 Daily 2024-05-16 04:51:30
张全兴:做绿水青山的卫士 0.8 Daily 2024-05-16 04:51:22
【48812】免费看美人直播软件 0.8 Daily 2024-05-16 04:51:12
企业 美国Kinetico康尼蒂克:无电驱动引领环保升级 0.8 Daily 2024-05-16 04:51:04
【48812】万华化学取得发明专利授权:“一种反常粒径吸水性树脂再利用的办法” 0.8 Daily 2024-05-16 04:50:56
【48812】高科技职业门户 0.8 Daily 2024-05-15 02:36:30
东岳全氟离子交换树脂及制备获中国专利金奖 0.8 Daily 2024-05-15 02:36:19
利安隆受邀参加“2021CIM共混智造”行业峰会-为“共混”保驾 为“智造”护航 0.8 Daily 2024-05-15 02:36:09
【48812】厦门清水器修理壹水务科技198元 0.8 Daily 2024-05-15 02:36:02
【48812】阳离子交换树脂产品报价动态(2022-12-08) 0.8 Daily 2024-05-15 02:35:35
【48812】阴离子交流树脂产品报价动态(2022-08-28) 0.8 Daily 2024-05-15 02:35:27
【48812】双冠代言·金牌质量 澳源泉清水签约国际冠军为品牌形象代言 0.8 Daily 2024-05-15 02:35:17
净水市场年增速40% 杂牌众多“傻傻分不清” 0.8 Daily 2024-05-15 02:35:10
【48812】阳离子交换树脂产品报价动态(2024-03-05) 0.8 Daily 2024-05-14 01:52:11
【48812】阳离子交换树脂产品报价动态(2024-03-19) 0.8 Daily 2024-05-14 01:52:03
【48812】离子交流树脂交流容量是什么 0.8 Daily 2024-05-14 01:51:54
【48812】双冠代言·金牌质量 澳源泉清水签约刘甜、侴陶为品牌形象代言 0.8 Daily 2024-05-14 01:51:46
【48812】离子交换树脂再生剂(软水盐)产品报价动态(2024-03-07) 0.8 Daily 2024-05-14 01:51:27
吸附分离材料行业全景速览:未来规模扩张行业向高质量阶段迈进 0.8 Daily 2024-05-14 01:51:19
【48812】深工有水 - 一同活动吧 0.8 Daily 2024-05-14 01:51:10
争光股份:离子交换与吸附树脂下游应用领域范围广泛包括到高端工业水、核工业、电子、生物医药、湿法冶金等诸多领域 0.8 Daily 2024-05-12 09:04:43
争光股份:在生物医药领域公司离子交换与吸附树脂主要使用在于西药原料药、中药及植物有效成分的提取等 0.8 Daily 2024-05-12 09:04:36
【48812】离子交流树脂容量核算公式 0.8 Daily 2024-05-12 09:04:27
【48812】我国科大宣布根据传统酚醛树脂研制高功用先进资料的评述论文 0.8 Daily 2024-05-12 09:04:01
2023年度优质家用净水器测评! 0.8 Daily 2024-05-12 09:03:52
【案例】华能集团内蒙古鄂尔多斯高头窑煤矿水处理系统改造及水质提升工程及运营项目 0.8 Daily 2024-05-01 07:06:43
明日边境英雄怎么重生 英雄回退方法 0.8 Daily 2024-05-01 07:06:33
2022年广西三支一扶公共基础知识每日一练(6月7日) 0.8 Daily 2024-04-30 03:47:46
【48812】党的二十大精力常识自测题(二十六) 0.8 Daily 2024-04-30 03:47:38
2021矿山安全普法网络知识竞赛题库 0.8 Daily 2024-04-30 03:47:30
2023年5月7日事业单位联考:综合应用能力A类送分题! 0.8 Daily 2024-04-30 03:47:23
2023年中国离子交换树脂产量及出售的收益预测分析(图) 0.8 Daily 2024-04-30 03:46:40
更懂中国水质 沁园净水机为广大购买的人“私人定制” 0.8 Daily 2024-04-30 03:46:32
【48812】LAICA 莱卡 BI-FLUX 双导流滤芯 12只装$3029(需用码约¥1878) 0.8 Daily 2024-04-30 03:46:25
张结来:引领离子交换树脂行业迎接创新浪潮 0.8 Daily 2024-04-30 03:46:17
保障居民供暖 金昌准备好了 0.8 Daily 2024-04-30 03:45:58
【48812】离子交换树脂再生剂(软水盐)产品报价动态(2024-03-01) 0.8 Daily 2024-04-30 03:45:51
银川供暖准备工作接近尾声可根据天气情况适时启动供热! 0.8 Daily 2024-04-30 03:45:43
焦点 降温!霜冻!逼近0℃!银川将根据天气情况适时启动供暖! 0.8 Daily 2024-04-30 03:45:36
【48812】离子交换树脂再生剂(软水盐)产品报价动态(2024-03-13) 0.8 Daily 2024-04-30 03:43:21
【48812】争气股份:公司离子交换与吸附树脂首要运用在于西药原料药、中药及植物有效成分的提取等 0.8 Daily 2024-04-28 10:51:33
争光股份:公司离子交换与吸附树脂产品在普通工业水处理领域大多数都用在硬水软化和纯水制备 0.8 Daily 2024-04-28 10:51:25
【科海思行业解答】国内离子交换树脂行业生存现状 0.8 Daily 2024-04-28 10:51:18
涉及环境影响评价弄虚作假等方面 8起2023年发布的典型案例 0.8 Daily 2024-04-28 10:50:43
【48812】天津纯水设备水箱天津蓟州壹水务不锈钢水箱 0.8 Daily 2024-04-28 10:50:09
【48812】让水质更优!枣庄市中区保证夏日安全供水 0.8 Daily 2024-04-28 10:50:01
一文了解瓶装水行业 0.8 Daily 2024-04-28 10:49:54
【48812】阳离子交换树脂产品报价动态(2024-02-16) 0.8 Daily 2024-04-28 10:47:31
2021年离子交换与吸附树脂生产项目投资分析报告 0.8 Daily 2024-04-28 10:47:24
【48812】阳离子交换树脂产品报价动态(2024-03-01) 0.8 Daily 2024-04-28 10:47:16
【48812】争气股份:1、离子交换与吸附树脂作为一种特别的功能性别离资料其使用商场正在产生一日千里的改变 0.8 Daily 2024-04-22 12:55:01
【48812】离子交换树脂再生剂(软水盐)产品报价动态(2023-08-01) 0.8 Daily 2024-04-22 12:54:42
锅炉软化水设备的树脂罐更换办法主要有哪些求解答 0.8 Daily 2024-04-22 12:54:21
【48812】阴离子交流树脂产品报价动态(2024-04-20) 0.8 Daily 2024-04-22 12:53:10
【48812】汉网 - 湖北省威望公益门户网站 0.8 Daily 2024-04-17 07:55:04
【48812】原神:树脂不要留该用还得用!榜首队伍很简单错失就没有了 0.8 Daily 2024-04-17 07:54:55
【48812】建材_信息-建材网第20页 0.8 Daily 2024-04-17 07:54:45
玻璃钢树脂罐募投项目可行性研究报告 0.8 Daily 2024-04-17 07:54:35
打造纯水器行业领先品牌 优普出击南京高教展 0.8 Daily 2024-04-17 07:54:27
【48812】2023年我国离子交流树脂产值及下流占比猜测剖析 0.8 Daily 2024-04-17 07:53:11
【48812】2021年全球及我国离子交换树脂职业现状、进出口现状、竞赛形势剖析「图」 0.8 Daily 2024-04-17 07:53:03
【48812】罗门哈斯离子交换树脂具体介绍 0.8 Daily 2024-04-17 07:52:55
建材_信息-建材网第24521页 0.8 Daily 2024-04-15 08:32:26
美的集团取得世界专利授权:“软水设备的树脂再生办法” 0.8 Daily 2024-04-15 08:32:17
2017-2022年中国软化水设备制造业投资前景分析与转型升级策略研究报告 0.8 Daily 2024-04-15 08:32:09
黄岩:屿头水厂现雏形 选用目前国内最先进的陶瓷膜清水体系 0.8 Daily 2024-04-15 08:32:00
争气股份:公司离子交换与吸附树脂产品大多数都用在西药原料药、中药及植物有效成分的别离纯化、除杂脱色等 0.8 Daily 2024-04-15 08:29:58
【精选】全自动软水器(钠离子交换器)再生周期计算方法 0.8 Daily 2024-04-15 08:28:36
根底化工职业专题:吸附别离资料职业剖析结构 0.8 Daily 2024-04-15 08:28:28
为何不能喝海水?神奇瓶子能将海水转化成淡水原理是什么? 0.8 Daily 2024-04-15 08:28:19
环保应用技能导航服务渠道 0.8 Daily 2024-04-15 08:28:12
离子交流树脂的原理与解析 0.8 Daily 2024-04-13 08:40:19
什么是离子交流树脂及其作业原理? 0.8 Daily 2024-04-13 08:40:12
详解软化水设备普遍的问题分析及维护需要注意的几点 0.8 Daily 2024-04-13 08:40:02
软化水设备作业原理 0.8 Daily 2024-04-13 08:39:55
“后悔率100%”的4种家电装了后悔不装也 0.8 Daily 2024-04-11 02:59:46
关于年加工15万立方米胶合板建设项目环境影响报告表的批复 0.8 Daily 2024-04-11 02:59:32
离子交换树脂再生剂(软水盐)产品报价动态(2023-11-04) 0.8 Daily 2024-04-09 01:19:01
离子交换树脂再生剂(软水盐)产品报价动态(2023-11-05) 0.8 Daily 2024-04-09 01:18:53
离子交换树脂再生剂(软水盐)产品报价动态(2024-03-24) 0.8 Daily 2024-04-09 01:18:46
离子交换树脂再生剂(软水盐)产品报价动态(2024-04-06) 0.8 Daily 2024-04-09 01:18:12
茂名市生态环境局拟对高州市顺达年加工10万吨猪肉制品项目(一期)环境影响评价文件作出批准决定的公示 0.8 Daily 2024-04-09 01:18:04
离子交流树脂厂家大孔强酸苯乙烯离子交流树脂世界各国代表类型 0.8 Daily 2024-04-09 01:16:35
常青科技:公司是离子交换树脂生产二乙烯苯的主要供应商能够完全满足下游客户各种应用需求 0.8 Daily 2024-04-09 01:16:26
我国华能编制的3项离子交流树脂相关世界标准发布 0.8 Daily 2024-04-09 01:16:19
离子交换树脂再生剂(软水盐)产品报价动态(2023-08-02) 0.8 Daily 2024-04-07 04:21:07
软水机20问|最强软水机攻略一篇搞定所有! 0.8 Daily 2024-04-07 04:20:59
上高县人民政府 0.8 Daily 2024-03-31 08:22:07
北京市朝阳区王四营乡土地一级开发项目一期1304-L04地块R2二类居住用地新建锅炉项目 0.8 Daily 2024-03-31 08:21:59
离子交换树脂再生剂(软水盐)产品报价动态(2023-08-22) 0.8 Daily 2024-03-31 08:21:51
2023年11月20日姑苏高新区管委会拟对建造项目环境影响评价文件作出批阅定见的公示 0.8 Daily 2024-03-31 08:21:42
离子交换树脂再生剂(软水盐)产品报价动态(2023-08-06) 0.8 Daily 2024-03-31 08:20:18
离子交换树脂再生剂(软水盐)产品报价动态(2023-09-10) 0.8 Daily 2024-03-29 12:37:02
软化水设备软化树脂有关技能参数 0.8 Daily 2024-03-29 12:36:53
离子交换树脂再生剂(软水盐)产品报价动态(2023-09-09) 0.8 Daily 2024-03-23 06:24:27
离子交换树脂再生剂(软水盐)产品报价动态(2024-03-10) 0.8 Daily 2024-03-21 06:19:17
净水设备树脂寿命几何?为什么有的超额使用有的达不到设计寿命 0.8 Daily 2024-03-21 06:19:06
软水盐是干什么用的;软化水用的盐是什么盐 0.8 Daily 2024-03-21 06:18:56
软水机真的有必要吗?试探性使用一年多直接改变了我的认知 0.8 Daily 2024-03-21 06:18:46
探寻折叠屏手机里的资料奥妙杜邦携多项立异技能露脸进博会 0.8 Daily 2024-03-21 06:18:38
2024年3月9日阳离子交换树脂价格最新行情猜测 0.8 Daily 2024-03-21 06:18:29
软水机如何保养 软水机保养方法【详解】 0.8 Daily 2024-03-18 01:06:10
罗门哈斯UP6040混合离子树脂怎么进行维护保养 0.8 Daily 2024-03-08 09:10:25
CH-32除氟树脂体系在废水中去除氟离子工艺规划 0.8 Daily 2024-03-08 09:10:16
姑苏凯旭净化设备有限公司 0.8 Daily 2024-03-08 09:10:05
中央空调体系用软化水设备装备 0.8 Daily 2024-03-08 09:09:56
离子交换树脂再生剂(软水盐)产品报价动态(2023-07-20) 0.8 Daily 2024-03-03 09:32:56
离子交换树脂再生剂(软水盐)产品报价动态(2023-09-29) 0.8 Daily 2024-03-03 09:32:47
上海研生生化试剂有限公司 0.8 Daily 2024-03-03 09:32:38
2024年阳离子交换树脂行业现状分析:阳离子交换树脂大多数都用在水处理领域 0.8 Daily 2024-03-03 09:32:30
2023-2028年中国强碱性季铵Ⅰ型阴离子交换树脂(1×8型)行业运营态势与投资前景调查研究报告 0.8 Daily 2024-03-03 09:32:20
降低能耗减少支出一份绿色医院“锦囊”请开启…… 0.8 Daily 2024-03-03 09:32:11
YDZQ-750 0.8 Daily 2024-03-03 09:32:02
YDZQ-350 0.8 Daily 2024-03-03 09:31:53
家庭净水器质量排名 净水器什么牌子比较好 0.8 Daily 2024-05-25 10:07:41
【48812】离子交换树脂再生剂(软水盐)产品报价动态(2023-12-02) 0.8 Daily 2024-05-25 10:07:33
【48812】廊坊森纳特化工有限公司 0.8 Daily 2024-05-25 10:06:59
【48812】原神:纯水之愿第二阶段愤恨的洛蒂娅将会成为最强BOSS 0.8 Daily 2024-05-25 10:06:51
【48812】超纯水阳离子交流树脂类型有哪些? 0.8 Daily 2024-05-25 10:06:44
超纯水抛光树脂怎么选 0.8 Daily 2024-05-25 10:06:36
奋进新征程 建功新时代 神木:能化产业高端、多元、低碳发展 0.8 Daily 2024-05-25 10:05:19
【48812】中集集团董秘回复:现在公司还未展开V瓶高压氢储运罐的出产。据了解比较于IV型瓶的树脂面料内胆、碳纤维强化树脂层的中间层以及玻璃纤维强化层的表层三层结构V型瓶是无内胆的两层结构即碳复合材料壳体及圆顶防护层。比照I拥 0.8 Daily 2024-05-25 10:05:11
【48812】喝出健康!三洋软水净水杯特价仅99元 0.8 Daily 2024-05-24 07:04:15
岳阳兴长石化股份有限公司2019年度报告摘要 0.8 Daily 2024-05-24 07:04:06
【48812】【家用产品系列】碧波源中心软水机S910920930 0.8 Daily 2024-05-24 07:03:59
【48812】蓝晓科技:超纯水方面现在已开端在芯片、面板范畴构成安稳协作到达千万级商业出售 0.8 Daily 2024-05-24 07:03:33
【48812】dnf希洛克团本进场资料 希洛克进场资料介绍 0.8 Daily 2024-05-24 07:02:03
【48812】飞鱼crm是什么东西 0.8 Daily 2024-05-24 07:01:54
【48812】华夏银行汽车借款请求条件是什么需求出示哪些材料 0.8 Daily 2024-05-24 07:01:46
林青霞的粉丝叫什么微博有多少粉丝个人资料简介 林青霞和互动太好笑了是怎么回复网友评论的 0.8 Daily 2024-05-24 07:01:39
石材掉光后变暗怎么样做工艺抛光处理 0.8 Daily 2024-05-24 07:01:31
【48812】YDZQ-400 0.8 Daily 2024-05-24 07:00:43
豪悦护理:ROE高达65%的“纸尿裤”龙头 0.8 Daily 2024-05-23 01:59:54
高吸收性树脂进口关税提高 0.8 Daily 2024-05-23 01:59:46
【48812】国际500强威立雅集团建立的我国区首个树脂再生工厂项目在常熟经开区开业 0.8 Daily 2024-05-23 01:59:27
【48812】【涂协】这群人齐聚于此 只为做好一张砂纸 0.8 Daily 2024-05-23 01:58:25
【48812】我国石化新闻网 0.8 Daily 2024-05-21 10:15:55
纸尿裤竞争日趋激烈质量却连年下滑 0.8 Daily 2024-05-21 10:15:46
【48812】供暖时刻定了!燕郊倒计时! 0.8 Daily 2024-05-21 10:14:21
格力手机作用是什么:定位“智能遥控” 三年不换压根不愁 0.8 Daily 2024-05-21 10:14:13
【48812】离子交换树脂再生剂(软水盐)产品报价动态(2023-12-16) 0.8 Daily 2024-05-21 10:14:05
【48812】离子交换树脂再生剂(软水盐)产品报价动态(2023-12-10) 0.8 Daily 2024-05-21 10:13:58
蓝晓科技获275家机构调研:公司具备拥有seplife2-CTC固相合成载体和sieber树脂、Rink、Wang等多款产品在产品的质量、工艺稳定性、与客户粘性等方面具有一定的先发优势(附调研问答) 0.8 Daily 2024-05-21 10:12:45
【48812】【经开区】威立雅常熟树脂再生工厂开业 0.8 Daily 2024-05-21 10:12:37
SEMICON China 2023 整装待发高频科技将携超纯水创“芯”科技亮相 0.8 Daily 2024-05-21 10:12:29
【48812】A股“新宠儿”:什么是PEEK? 0.8 Daily 2024-05-21 10:10:54
浏阳市人民政府 0.8 Daily 2024-05-21 10:10:46
【48812】万宝龙大班劲黑系列推出哑光黑色特别版 0.8 Daily 2024-05-21 10:10:38
【48812】中国石油石油化工研讨院专用树脂取得国际高端商场认可 0.8 Daily 2024-05-20 07:09:31
探索工业锅炉节能新途径 0.8 Daily 2024-05-20 07:09:05
巴彦淖尔市生态环境局五原县分局关于2024年5月6日拟作出的建设项目环境影响评价文件审批意见的公示 0.8 Daily 2024-05-20 07:08:57
【48812】GWA-UN4-20 超纯水机 京仪 0.8 Daily 2024-05-20 07:07:12
【48812】轿车原车防冻液最多可以使几年? 0.8 Daily 2024-05-20 07:07:04
流量控制阀的作用是什么 0.8 Daily 2024-05-20 07:05:55
新农合将会给农民带来四大好处 0.8 Daily 2024-05-20 07:05:48
【48812】生意社:10月26日长春化工(江苏)环氧树脂最新报价 0.8 Daily 2024-05-19 03:27:21
“东热西送”二期4号泵站正有序建设 预计10月10日全线调试试运行 0.8 Daily 2024-05-19 03:26:38
【48812】你知道智能游戏手柄用什么改性塑料吗? 0.8 Daily 2024-05-19 03:26:29
【48812】中信证券-蓝晓科技-300487-2020年三季报点评:树脂坚持出售旺盛 汇兑小幅连累成绩 0.8 Daily 2024-05-19 03:25:59
【48812】环氧树脂:商场决心缺少价格全体下滑超千元 0.8 Daily 2024-05-18 09:39:57
【48812】国内环氧树脂商场行情报价暴升后市仍有推涨预期 0.8 Daily 2024-05-18 09:39:48
2月26日树脂价格指数 0.8 Daily 2024-05-18 09:39:40
【48812】聚氯乙烯树脂产品报价动态(2022-08-04) 0.8 Daily 2024-05-18 09:39:33
【48812】吉屋网:疫情对楼市冲击料相对短期 2020年楼市仍将保持稳定 0.8 Daily 2024-05-18 09:39:23
争光股份(301092):2023年度网上业绩说明会投资者关系活动记录表 0.8 Daily 2024-05-18 09:39:15
涂料_建材涂料_信息-建材网第300页 0.8 Daily 2024-05-18 09:39:07
年报中的中国经济|蓝晓科技2023年归母净利717亿元生命科学板块扩产 0.8 Daily 2024-05-18 09:39:00
PVC期货是什么品种(PVC期货交易时间是何时) 0.8 Daily 2024-05-18 09:38:51
【48812】残次涂料一换“马夹”成名牌 0.8 Daily 2024-05-18 09:38:16
【48812】廉价的空调滤包料包装置 0.8 Daily 2024-05-18 09:38:09
【48812】京东替换机油滤清器包工包料279 0.8 Daily 2024-05-18 09:38:01
争光股份2023年年度董事会经营评述 0.8 Daily 2024-05-18 09:37:02
【48812】争气股份:在电子范畴企业来供给的专用树脂可用于特别电子职业的超纯水制备 0.8 Daily 2024-05-18 09:36:53
【48812】2024年5月14日聚氯乙烯树脂PVC价格最新行情猜测 0.8 Daily 2024-05-17 06:59:39
【48812】争气股份:公司产品大范围的应用于工业水处理、食物及饮用水等范畴 0.8 Daily 2024-05-17 06:59:29
【48812】时刻之钥清水体系在哪里 详细坐标共享 0.8 Daily 2024-05-16 04:53:21
【48812】离子交换树脂再生剂(软水盐)产品报价动态(2024-02-20) 0.8 Daily 2024-05-16 04:53:12
【48812】【办理变革】动力厂敞开动力一体化集控体系建造作业 0.8 Daily 2024-05-16 04:53:05
【48812】8月11日生意社环氧树脂基准价为1450000元吨 0.8 Daily 2024-05-16 04:52:56
【48812】原神:纯水活动值得刷吗?一点三倍的经历奖赏助力玩家飞速生长 0.8 Daily 2024-05-16 04:52:04
蓝晓科技:有知名基金经理杨谷参与的多家机构于11月9日调研我司 0.8 Daily 2024-05-16 04:51:55
中国银河:给予蓝晓科技买入评级 0.8 Daily 2024-05-16 04:51:47
【48812】蓝晓科技(300487SZ):有核级废污水处理及收回专用树脂可用于铯、钍、铀等放射金属的吸附、收回 0.8 Daily 2024-05-16 04:50:48
【48812】天业集团一项专利效果处理职业难题 0.8 Daily 2024-05-16 04:50:40
【48812】1月15日树脂价格指数 0.8 Daily 2024-05-15 02:37:06
一吨暴涨8000!4月1日起“原材料涨价潮”来袭 0.8 Daily 2024-05-15 02:36:58
开能健康:12月4日接受机构调查与研究国信证券、投资者参与 0.8 Daily 2024-05-15 02:36:49
【48812】研讨新发现:树脂能有用过滤饮用水中有害的永久化学物质 0.8 Daily 2024-05-15 02:36:40
etadata 0.8 Daily 2024-05-15 02:35:52
深市公司成长记丨蓝晓科技:吸附分离行业的国内龙头 长期资金市场助力公司稳健发展 0.8 Daily 2024-05-15 02:35:43
【48812】聚氯乙烯树脂粉产品报价动态(2024-01-03) 0.8 Daily 2024-05-15 02:35:01
【48812】8月10日生意社环氧树脂基准价为1450000元吨 0.8 Daily 2024-05-15 02:34:53
【48812】怎么解锁高质量沐浴体会 0.8 Daily 2024-05-14 01:52:36
【48812】工业废水日子废物污水处理专用进口杜笙树脂类型介绍 0.8 Daily 2024-05-14 01:52:27
【48812】2月1日生意社PVC树脂SG5基准价为559000元吨 0.8 Daily 2024-05-14 01:52:20
iOS15升级 0.8 Daily 2024-05-14 01:51:37
重新定位从芯出发中广欧特斯全新净化水的产品线即将面市 0.8 Daily 2024-05-14 01:51:00
专“芯”净好水BARRIER博怡更专业 0.8 Daily 2024-05-14 01:50:52
【48812】丙烯酸篮球场多少钱一平方 0.8 Daily 2024-05-12 09:05:23
来自龙头的怒吼 0.8 Daily 2024-05-12 09:04:18
证券时报电子报实时通过手机APP、网站免费阅读重大财经新闻资讯及上市公司公告 0.8 Daily 2024-05-12 09:04:10
智研咨询发布:2023年稀土抛光粉行业现状、发展环境及深度分析报告 0.8 Daily 2024-05-12 09:03:42
【聚焦】船舶制造“超级周期”来临船舶涂料迎新机遇国产品牌加速入场 0.8 Daily 2024-05-12 09:03:34
【48812】1月12日生意社环氧树脂基准价为1343333元吨 0.8 Daily 2024-05-01 07:07:08
六港彩现场直播和彩开奖结果 0.8 Daily 2024-05-01 07:07:00
【48812】EVGA发布非公版RTX 2060及RTX 2080 Ti显卡:不只有水冷版还有单扇的涡轮版 0.8 Daily 2024-05-01 07:06:52
【48812】出资超7亿元的七大技改项目拉起主体结构 0.8 Daily 2024-04-30 03:47:13
【48812】“小小”立异成果“满满” 0.8 Daily 2024-04-30 03:47:04
【48812】耐科配备:首要是做应用于半导体封装和塑料挤出成型范畴的智能制作配备的研制、出产和出售 0.8 Daily 2024-04-30 03:46:56
绿色高效树脂循环经济产业链可行性研究报告 0.8 Daily 2024-04-30 03:46:49
【48812】离子交换树脂再生剂(软水盐)产品报价动态(2024-03-08) 0.8 Daily 2024-04-30 03:45:01
河北诚信集团:绿色发展探新路诚信为本启征程 0.8 Daily 2024-04-30 03:44:52
十里钢城那一抹清新的绿 0.8 Daily 2024-04-30 03:44:44
【48812】歙县园区紧迫停炉检修!环氧树脂、TGIC或受影响 0.8 Daily 2024-04-30 03:44:37
【48812】我国中心软水处理器商场现状剖析及远景猜测陈述 0.8 Daily 2024-04-30 03:43:55
【48812】全自动软水器职业深度研讨报告 0.8 Daily 2024-04-30 03:43:47
探秘中国星西安超级智能环保工厂 0.8 Daily 2024-04-30 03:43:37
杜邦泰湃科™首次亮相2021AWE 全屋净水解决方案引领绿色生活 0.8 Daily 2024-04-30 03:43:30
离子交换与吸附树脂行业迎来国产替代关键期万亿市场持续扩张 0.8 Daily 2024-04-28 10:51:08
【48812】朗盛进步离子交换树脂价格 0.8 Daily 2024-04-28 10:51:01
【48812】满意商场对水质的新需求 0.8 Daily 2024-04-28 10:50:53
【48812】环氧树脂商场干流价格已达3万 0.8 Daily 2024-04-28 10:48:59
【48812】环氧树脂产品报价动态(2023-06-19) 0.8 Daily 2024-04-28 10:48:52
【48812】环氧树脂产品报价动态(2024-01-13) 0.8 Daily 2024-04-28 10:48:44
【48812】树脂多少钱一吨(pbt树脂) 0.8 Daily 2024-04-28 10:48:12
【48812】北美PET瓶用树脂及部分收回树脂价格上涨 0.8 Daily 2024-04-28 10:48:04
下游新兴领域多点开花离子交换树脂龙头静待产能扩张 0.8 Daily 2024-04-28 10:47:55
【48812】争气股份董秘回复:公司离子交换与吸附树脂产品在电子范畴可应用于半导体及大规模集成电路职业超纯水处理 0.8 Daily 2024-04-28 10:47:48
蓝晓科技:实现“超纯水”工业化突破 上海水展斩获重要订单 0.8 Daily 2024-04-28 10:47:40
浅谈医药生物行业纯化水与注射用水系统内毒素去除 0.8 Daily 2024-04-22 12:54:52
鼎龙股份获24家机构调研:半导体封装PI业务与公司已有半导体面板显示材料YPI、PS业务高度相关(附调研问答) 0.8 Daily 2024-04-22 12:53:54
【48812】YDZQ-250 0.8 Daily 2024-04-22 12:53:33
【48812】离子交换树脂再生剂(软水盐)产品报价动态(2023-10-14) 0.8 Daily 2024-04-22 12:53:22
【48812】超纯水树脂价格-最新超纯水树脂价格、批发报价、大全 - 阿里巴巴 0.8 Daily 2024-04-19 05:51:22
【48812】争气股份:企业来供给的专用树脂可用于特别电子职业的超纯水制备 0.8 Daily 2024-04-17 07:53:46
2021-2025年超纯水应用前景较好 行业发展速度较快 0.8 Daily 2024-04-17 07:53:39
品牌的力量|利江生物:一粒吸附树脂的“裂变” 0.8 Daily 2024-04-17 07:53:30
【48812】争气股份:公司出产的电子级树脂、核级树脂、低TOC电子级抛光等产品可应用于半导体、大规模集成电路、芯片等职业超纯水处理 0.8 Daily 2024-04-17 07:53:23
直击业绩会 蓝晓科技(300487SZ):均粒超纯水系列树脂与京东方等厂商实现商业化订单 订单规模千万级别 0.8 Daily 2024-04-15 08:31:34
PTFE膜有哪些分类及应用? 0.8 Daily 2024-04-15 08:31:27
蓝晓科技董秘回复:公司的超纯水均粒树脂制备出的超纯水首要运用在在核电、芯片、面板等范畴 0.8 Daily 2024-04-15 08:31:18
打赢“翻身仗”采出“效益油” 0.8 Daily 2024-04-15 08:31:05
慧博投研资讯-专业的投资研究报告大数据平台-免费的研报分享平台-慧博资讯 0.8 Daily 2024-04-15 08:30:57
新净水器烧出水碱 厂方称属正常现象 0.8 Daily 2024-04-15 08:30:48
看移动时代的家庭住宅如何铸建健康绿色首道“屏障” 0.8 Daily 2024-04-15 08:30:40
中粮期货:0903看涨不改 焦煤上看2800 0.8 Daily 2024-04-15 08:30:32
争气股份:公司出产的电子级树脂、核级树脂等产品可应用于半导体、芯片等职业超纯水处理 0.8 Daily 2024-04-15 08:30:22
蓝晓科技: 2022年年度报告摘要 0.8 Daily 2024-04-15 08:30:15
如何对环氧树脂胶抛光 0.8 Daily 2024-04-15 08:30:07
豪悦护理董秘回复:公司首要原材料为无纺布、高分子吸水树脂、热熔胶、包装袋等都是石油衍生产品 0.8 Daily 2024-04-15 08:29:48
豪悦护理:公司首要原材料为无纺布、高分子吸水树脂、热熔胶、包装袋等都是石油衍生产品 0.8 Daily 2024-04-15 08:29:40
2023年中国卫生巾行业上游影响分析 中国已成为全世界主要的无纺布、高吸水性树脂生产国【组图】 0.8 Daily 2024-04-15 08:29:32
2023年我国卫生巾行业市场行情报价、需求调研;卫生巾功能细分将会是行业未来的发展趋势 0.8 Daily 2024-04-15 08:29:23
PA6产品报价动态(2023-02-13) 0.8 Daily 2024-04-15 08:29:16
郑州卷式纳滤膜 高温膜产品 0.8 Daily 2024-04-09 01:17:54
甘肃纳滤膜技能 卷式膜 0.8 Daily 2024-04-09 01:17:44
高温纳滤膜 有机膜技能 0.8 Daily 2024-04-09 01:17:36
纯水制备的主要方法有哪些它们在实际应用中有何区别? 0.8 Daily 2024-04-09 01:17:27
湖南恒缘新材科技股份有限公司新增备用天然气锅炉项目环评拟批阅公示 0.8 Daily 2024-04-09 01:17:20
西班牙卓生水处理助力家庭商用热水节能! 0.8 Daily 2024-04-09 01:17:12
《广东科技》报道|大湾区科学技术创新服务中心:构建“一站式”科创客户服务平台 0.8 Daily 2024-04-09 01:17:02
【政策】山西印发战略性新兴起的产业支持目录包含这些非金属矿物材料及设备! 0.8 Daily 2024-04-09 01:16:54
争气股份:公司出产的电子级树脂、核级树脂、低TOC电子级抛光等产品的质量处于国内前列 0.8 Daily 2024-04-09 01:16:45
三超新材:公司划片刀、树脂软刀、金属软刀和电镀均已有小批量发货CMP-Disk也已经有批量发货 0.8 Daily 2024-04-09 01:16:08
三超新材:子公司江苏三晶的树脂软刀、金属软刀和电镀等产品用于半导体芯片的封装进程 0.8 Daily 2024-04-09 01:16:00
主力资金 主力撤离多只抢手题材股!两大龙头获抢筹均超4亿元 0.8 Daily 2024-04-09 01:15:52
新一代存储芯片标准即将发布 0.8 Daily 2024-03-31 08:21:21
什么是原水、软化水、脱盐纯水和超纯水 0.8 Daily 2024-03-31 08:21:12
【互动掘金】朗进科技:全系列风冷、液冷储能温控产品已大批量出产出售 0.8 Daily 2024-03-31 08:21:04
牢牢把握项目建设 “生命线”积蓄高水平质量的发展新动能 0.8 Daily 2024-03-31 08:20:55
软化水设备修理-软化水设备修理品牌、图片、排行榜 - 阿里巴巴 0.8 Daily 2024-03-31 08:19:40
软化水设备中树脂罐的替换办法 0.8 Daily 2024-03-31 08:19:33
韩国三养UPRC320U超纯水树脂装填过程与运用范畴 0.8 Daily 2024-03-29 12:36:20
水处理基本知识 超纯水的极限电阻率为什么是183MΩCM 0.8 Daily 2024-03-23 06:23:52
蓝晓科技:公司供给的超纯水树脂及技能大大都都用在电子、芯片、晶圆清洗和浸没式光刻等场景没有开发液冷服务器方向 0.8 Daily 2024-03-21 06:17:01
韩国三养UPRA300U超纯水树脂装填与使用需要注意的几点 0.8 Daily 2024-03-21 06:16:52
技能篇 ●CH-99除硼树脂技能在超纯水除硼中的运用 0.8 Daily 2024-03-21 06:16:43
朗盛新型混床树脂用于半导体生产中的超纯水 0.8 Daily 2024-03-08 09:09:45
离子交换树脂再生剂(软水盐)产品报价动态(2024-03-03) 0.8 Daily 2024-03-03 09:31:44
离子交换树脂再生剂(软水盐)产品报价动态(2023-12-31) 0.8 Daily 2024-03-03 09:31:36
高频科技受邀参加2023北京IC WORLD大会助力产业创“芯”发展 0.8 Daily 2024-03-03 09:31:28
杜邦、罗门哈斯AMBERJETUP6150高纯度抛光混床树脂 0.8 Daily 2024-03-03 09:31:20
外冷树脂产品报价动态(2024-03-03) 0.8 Daily 2024-03-03 09:31:11
聚氯乙烯树脂PVC产品报价动态(2024-03-03) 0.8 Daily 2024-03-03 09:31:03
半导体出产为何需求使用超纯水设备? 0.8 Daily 2024-03-03 09:30:54
由盈转亏 金力泰前三季度纯利润是-627686万至-557686万 0.8 Daily 2024-05-25 10:05:38
球球英雄科技镰刀作用介绍 0.8 Daily 2024-05-25 10:05:29
台化近年塑料事业部差别化布局! 0.8 Daily 2024-05-25 10:04:52
【48812】PPG参与我国轿车防腐蚀与老化技能VCAP论坛 0.8 Daily 2024-05-24 07:03:07
【财经】粉末涂料树脂龙头冲刺主板IPO阿克苏PPG为其客户 0.8 Daily 2024-05-24 07:02:58
【48812】1019号股市直播回忆 0.8 Daily 2024-05-24 07:02:51
亏损6000万!汽车涂料龙头涨价25%! 0.8 Daily 2024-05-24 07:02:43
双回路防爆照明动力配电箱哪家好 0.8 Daily 2024-05-24 07:02:34
给宝宝办理医保卡好处 0.8 Daily 2024-05-24 07:02:27
【48812】为什么有些时分贴面粘接出来的色彩和试戴时不一样? 0.8 Daily 2024-05-24 07:02:19
江恩时间之窗基本功能、作用以及实战意义 0.8 Daily 2024-05-24 07:02:11
【资讯】艾仕得再投资10亿元新建年产156万吨高性能涂料基地 0.8 Daily 2024-05-24 07:01:22
【48812】立邦电泳涂料又打破职业“底线” 0.8 Daily 2024-05-24 07:01:15
【48812】PPG迎来电泳涂料技能推行50周年 0.8 Daily 2024-05-24 07:01:07
【48812】巴斯夫将在沪兴修全新树脂出产设备 0.8 Daily 2024-05-24 07:01:00
【资讯】PPG天津公司去年销售额达544亿元业绩首次出现下滑 0.8 Daily 2024-05-24 07:00:52
血泊和石榴石的区别是什么 0.8 Daily 2024-05-24 07:00:00
EDI超纯水设施厢式机箱 0.8 Daily 2024-05-24 06:59:52
【48812】超纯水 选用RO纯水设备 滨润 0.8 Daily 2024-05-24 06:59:44
【48812】玻璃涂料专区 0.8 Daily 2024-05-24 06:59:37
【48812】未将风险化学品储存在专用仓库内 东莞市益典实业有限公司被罚 0.8 Daily 2024-05-23 01:58:51
2023年4月起全方面执行!《生活饮用水卫生标准》解读来了 0.8 Daily 2024-05-23 01:58:41
“兆德”坚持以专业化的技术与全方位的服务高标准化的保障客户 0.8 Daily 2024-05-23 01:58:34
山东元利科技股份有限公司首次公开发行股票招股意向书摘要 0.8 Daily 2024-05-21 10:15:07
【光大中小盘晓盘波报】继续看好成长组合 0.8 Daily 2024-05-21 10:14:58
【48812】产品性质是否风险品威望说了算 0.8 Daily 2024-05-21 10:11:38
【48812】根据《风险化学品安全办理法令》的规则下列关于风险化学品安全运用答应 0.8 Daily 2024-05-21 10:11:30
【48812】杭州市应急管理局查办一同贮存风险化学品的数量不符合国家标准或许国家相关规则案 0.8 Daily 2024-05-21 10:11:19
夏天玩水担心泳池水质安全要看这些数值 0.8 Daily 2024-05-21 10:11:10
【48812】GB 5749-2022《日子饮用水卫生标准》全文已发布 0.8 Daily 2024-05-21 10:11:03
【48812】罗门哈斯抛光树脂UP6150性能参数、再生 0.8 Daily 2024-05-21 10:10:30
【48812】杜邦UP6150 HOH抛光树脂技术参数与功能特色 0.8 Daily 2024-05-21 10:10:21
【48812】罗门哈斯UP6150抛光树脂 0.8 Daily 2024-05-21 10:10:12
【48812】一个锅都买不起?这次估量连一个笔你也买不起了 0.8 Daily 2024-05-21 10:10:05
塑料市场走势分析:PE小幅上涨PP下行PVC持续上涨ABS稳定 0.8 Daily 2024-05-20 07:09:21
6月1日PEPPPVC塑料价格行情期货上涨 0.8 Daily 2024-05-20 07:09:13
PPG:与行业共享成果 同促电泳技术发展 0.8 Daily 2024-05-20 07:06:22
【48812】抵挡“外在腐蚀”立邦高功用涂料为商用车保驾护航 0.8 Daily 2024-05-20 07:06:14
蓝晓科技:参加上海国际水展 水处理业务强劲增长 0.8 Daily 2024-05-20 07:06:04
PVC瓦使用年数的限制OK树脂琉璃瓦常规使用的寿命有多久 0.8 Daily 2024-05-20 07:05:35
【48812】日联科技:公司出产的工业X射线智能检测配备依据其应用领域、运用频率等不同惯例运用的寿数一般在3-8年区间 0.8 Daily 2024-05-20 07:05:27
【48812】【资讯】轿车涂料领军企业金力泰出资扩大年产26万吨电泳漆产能 0.8 Daily 2024-05-19 03:27:05
宏昌电子材料股份有限公司2022年度报告摘要 0.8 Daily 2024-05-19 03:26:49
潜规则再升级:拿涂料空罐子也能得回扣 0.8 Daily 2024-05-18 09:41:16
榆林:引领煤化工向精深迈进 0.8 Daily 2024-05-18 09:41:08
全球涂料巨头PPG完成收购百润化工 0.8 Daily 2024-05-18 09:41:00
【48812】【资讯】看好我国轿车漆未来商场开展的潜力巴斯夫投建年产35万吨电泳漆乳液 0.8 Daily 2024-05-18 09:40:53
【48812】宝城期货-塑料、PP早报-220701 0.8 Daily 2024-05-18 09:40:45
【48812】川剧变脸的原理揭秘 归于国家二级秘要真吗 0.8 Daily 2024-05-18 09:40:36
【48812】动力让节能降耗更有动力! 0.8 Daily 2024-05-18 09:40:28
【48812】舟山船只防污涂料项目获国家赞助 0.8 Daily 2024-05-18 09:40:21
波浪理论原理包含有哪些波浪理论三个原则 0.8 Daily 2024-05-18 09:40:13
探索财富密码|盐湖提锂、芯片超纯水、稀有金属蓝晓科技频频在“热点”上起舞靠什么? 0.8 Daily 2024-05-18 09:40:06
PPG(中国)有限公司大事记(一) 0.8 Daily 2024-05-18 09:38:41
预见2021:《2021年中国涂料行业全景图谱》(附市场现状、竞争格局和发展的新趋势等) 0.8 Daily 2024-05-18 09:38:33
资本运作 涂料企业做大做强必由之路 0.8 Daily 2024-05-18 09:38:25
【48812】我国CMP抛光资料企业布局状况 0.8 Daily 2024-05-18 09:36:09
湖北鼎龙控股股份有限公司 0.8 Daily 2024-05-18 09:36:00
CMP抛光材料未来市场发展的潜力:预计2023年我国CMP抛光材料行业市场规模将突破50亿元 0.8 Daily 2024-05-18 09:35:52
【48812】四部分强推光刻胶迎来利好相关范畴标的有望获益 0.8 Daily 2024-05-18 09:35:44
【48812】9月7日 合肥 马小寒教师《前牙美学树脂修正》理论实操班 0.8 Daily 2024-05-18 09:35:36
【48812】凯柏立邦超高泳透力轿车电泳涂料助力轿车绿色未来 0.8 Daily 2024-05-17 07:00:05
【48812】安集科技取得发明专利授权:“一种化学机械抛光液及其运用方法” 0.8 Daily 2024-05-17 06:59:56
【48812】亚洲之子学生会长音乐会触发办法详解 0.8 Daily 2024-05-17 06:59:48
【48812】PPG兴修在华首家树脂工厂 0.8 Daily 2024-05-16 04:54:12
【48812】PPG为山东时风第一批微卡供给环保电泳漆 0.8 Daily 2024-05-16 04:54:04
机器人技术与应用 0.8 Daily 2024-05-16 04:53:55
【48812】电泳漆树脂是危险品吗? 0.8 Daily 2024-05-16 04:53:45
东莞从进口油漆中检验出危险化学品 0.8 Daily 2024-05-16 04:53:37
【48812】电泳漆树脂是不是危险品 0.8 Daily 2024-05-16 04:53:30
【48812】差额交割有哪些效果 0.8 Daily 2024-05-16 04:50:31
【48812】绝地求生未来之役绿色信号枪作用及使用方法分享 0.8 Daily 2024-05-16 04:50:23
远期外汇买卖的作用是什么 0.8 Daily 2024-05-16 04:50:16
宏昌电子2022年净利557亿同比增长49% 0.8 Daily 2024-05-15 02:37:58
阿科力2023年年度董事会经营评述 0.8 Daily 2024-05-15 02:37:50
【48812】2021年光刻胶上市公司龙头股票一览5分钟教你看懂 0.8 Daily 2024-05-15 02:37:40
【48812】2022我国深圳(高交会)世界电子资料工业博览会 0.8 Daily 2024-05-15 02:37:32
立邦超低温电泳涂料正式应用于大众汽车 0.8 Daily 2024-05-15 02:37:22
【48812】姑苏市“外企服务月”第三调研组来我市展开外资企业造访调研 0.8 Daily 2024-05-15 02:37:15
深圳工会会员卡的好处+用途+激活 0.8 Daily 2024-05-15 02:34:43
强化工业产品矩阵!立邦投资2024万美元建设水性电泳树脂项目 0.8 Daily 2024-05-14 01:53:28
【资讯】PPG年产8万吨涂料项目成功投产服务于华东地区客户 0.8 Daily 2024-05-14 01:53:20
职务侵占案检察院不起诉的7种常见类型 0.8 Daily 2024-05-14 01:53:10
东岳硅材2023年年度董事会经营评述 0.8 Daily 2024-05-14 01:53:03
2015年工业涂料涂装领域十大新闻事件 0.8 Daily 2024-05-14 01:52:53
【48812】2018年我国轿车涂料职业商场现状剖析环保涂料是首要盛行趋势「图」 0.8 Daily 2024-05-14 01:52:45
堆叠大陆矿床作用说明 0.8 Daily 2024-05-14 01:50:44
业委会的职责和作用 0.8 Daily 2024-05-14 01:50:36
【48812】【资讯】立邦再出资近4亿元加码工业涂料事务水性化产能大增 0.8 Daily 2024-05-12 09:06:13
涂料油墨板块研报:“小公司”扎堆的行业中 专业化才是未来 0.8 Daily 2024-05-12 09:06:06
【48812】“长时间触摸石棉建材等制品会致癌?”工信部回应了 0.8 Daily 2024-05-12 09:05:57
“吨吨杯”火了!但专家提醒:这样使用可能会产生有害物质 0.8 Daily 2024-05-12 09:05:49
安全生产曝光台 同安区应急管理局查处2起未取得危险化学品经营许可证从事危险化学品经营的违法行为 0.8 Daily 2024-05-12 09:05:40
警惕:废旧钢桶处置不当会犯法的! 0.8 Daily 2024-05-12 09:05:31
【48812】借款要买稳妥是什么意思 0.8 Daily 2024-05-12 09:03:25
【48812】es374网捷贷是什么意思 0.8 Daily 2024-05-12 09:03:17
净赚490万!​电泳涂料专家毛利率下降40%! 0.8 Daily 2024-05-01 07:07:53
山东又一小镇走红耗资2亿元建成占地620亩年游客量达40万 0.8 Daily 2024-05-01 07:07:44
【48812】冯德莱恩讪笑俄罗斯你失算了! 0.8 Daily 2024-05-01 07:07:35
【48812】APP广告变现中心数据目标有哪些? 0.8 Daily 2024-05-01 07:07:28
【48812】宏昌电子董秘回复: ①企业首要从事电子级环氧树脂、覆铜板两大类产品的出产和出售产品下流应用到轿车电泳漆 0.8 Daily 2024-05-01 07:07:19
新能源汽车电池可大致分为哪两个种类 0.8 Daily 2024-04-30 03:47:56
优加广告平台开发者热门问题解答 0.8 Daily 2024-04-30 03:46:08
立足环境容量禀赋放大产业基础优势在绿水青山间推动新材料和绿色软包装产业集群化探索高水平质量的发展路径 0.8 Daily 2024-04-30 03:45:26
科迈罗Camaro 0.8 Daily 2024-04-30 03:45:17
【48812】宏昌电子:首要是做电子级环氧树脂、覆铜板两大类产品的出产和出售产品下流应用到轿车电泳漆烤漆等 0.8 Daily 2024-04-30 03:45:09
涂料企业与其走低价 不如实实在在做产品 0.8 Daily 2024-04-30 03:44:28
涂料行业产能过剩 浅谈水性涂料未来 0.8 Daily 2024-04-30 03:44:20
【48812】艾仕得独立运营其在我国的粉末涂料事务 0.8 Daily 2024-04-30 03:44:13
【48812】巴斯夫将在湛江一体化基地 建造新戊二醇设备 0.8 Daily 2024-04-30 03:44:05
金力泰:2022年年度报告摘要 0.8 Daily 2024-04-28 10:51:49
交投低迷再度下挫沪指跌破2900点 0.8 Daily 2024-04-28 10:51:42
奔朗新材2023年年度董事会经营评述 0.8 Daily 2024-04-28 10:50:33
【48812】业界新闻-电子 0.8 Daily 2024-04-28 10:50:25
全栈型智能产品开发商Essential AI收4亿融资谷歌AMD等共同出资 0.8 Daily 2024-04-28 10:50:18
我国水性涂料行业发展的新趋势与市场分析 0.8 Daily 2024-04-28 10:49:45
踔厉奋发 笃行不怠 中山大桥化工集团2022年筑梦之路 0.8 Daily 2024-04-28 10:49:36
房子以买卖过户给子女2023新政策 0.8 Daily 2024-04-28 10:48:35
蓝晓科技:2022年年度报告摘要 0.8 Daily 2024-04-28 10:48:28
【48812】探秘跨过千年的“百科全书” 0.8 Daily 2024-04-28 10:48:20
【48812】三菱电泳漆树脂怎么清洗? 0.8 Daily 2024-04-22 12:55:11
蓝晓科技2023年年度董事会经营评述 0.8 Daily 2024-04-22 12:54:31
阴极电泳漆树脂有哪几种-志邦科技 0.8 Daily 2024-04-22 12:54:06
日本真正开始排核污水!偷存的5万吨超纯水是为今天留的后手? 0.8 Daily 2024-04-22 12:53:43
【48812】罗门哈斯UP6150离子交流树脂参数和影响寿数的原因 0.8 Daily 2024-04-19 05:51:07
【48812】我国电泳漆职业动态调研及远景猜测 0.8 Daily 2024-04-17 07:55:35
香港最快开奖场直播 0.8 Daily 2024-04-17 07:55:23
【48812】食物罐头涂料项目资金申请报告 0.8 Daily 2024-04-17 07:55:14
【前瞻分析】2023年中国涂料行业发展前途及趋势预测 0.8 Daily 2024-04-17 07:54:14
丽水市“十三五”科技发展规划 0.8 Daily 2024-04-17 07:54:05
在华坐拥五大基地!巴斯夫发布2019大中华区年度报告! 0.8 Daily 2024-04-17 07:53:57
【48812】飞鹿股份:公司是国内第一批经过自主研制水性树脂成功制备高端配备用水性涂料的企业之一 0.8 Daily 2024-04-17 07:52:45
2021年哪些才是粘胶龙头?你都知道吗? 0.8 Daily 2024-04-15 08:33:29
海洋能是可再次生产的能源吗 2020中国海洋能行业发展的新趋势分析 0.8 Daily 2024-04-15 08:33:18
巨量的再生塑料商场要毁在“短平快”的职业乱象中吗 0.8 Daily 2024-04-15 08:33:11
可再次生产的能源究竟怎么降成本?看看行业大佬肿么说! 0.8 Daily 2024-04-15 08:33:02
100%可再生能源能够实现么?先从几个概念和当前进展说起 0.8 Daily 2024-04-15 08:32:53
丽水市开展和变革委员会关于浙江弘利电子资料有限公司年产17万吨光电专用环氧树脂及其功用资料项目节能陈述审阅查看定见的函 0.8 Daily 2024-04-15 08:32:44
八仙过海391155com 0.8 Daily 2024-04-15 08:32:35
金力泰:2015年年度报告摘要 0.8 Daily 2024-04-15 08:31:51
东方明珠、迪士尼暂停营业!化工品新一波涨价函来了 0.8 Daily 2024-04-15 08:31:43
吸附材料高增长:新能源空间大高新领域技术强、国产替代空间大 0.8 Daily 2024-04-15 08:29:06
太平洋:给予蓝晓科技买入评级目标价位1400元 0.8 Daily 2024-04-15 08:28:54
奔朗新材上市:深耕超硬材料制品22年成就行业龙头 创造新兴事物的能力和核心技术竞争优势显著 0.8 Daily 2024-04-15 08:28:46
抛光树脂作业原理 0.8 Daily 2024-04-13 08:40:51
抛光混床树脂的作业原理究竟是什么 0.8 Daily 2024-04-13 08:40:43
东莞市霖辉金属表面处理资料有限公司 0.8 Daily 2024-04-13 08:40:35
深圳市华灿外表技能有限公司 0.8 Daily 2024-04-13 08:40:28
鼎龙股份:积极布局高端光刻胶赛道加速打造新材料创新平台(申万宏源研报) 0.8 Daily 2024-04-11 03:00:37
经济日报多媒体数字报刊 0.8 Daily 2024-04-11 02:59:57
SABIC将在2024年OFC展上展示EXTEM 树脂该产品适用于共封装光学器件的微透镜阵列 0.8 Daily 2024-04-09 01:19:36
2023年全球水性环氧涂料职业工业链、商场规模及出产企业介绍剖析[图] 0.8 Daily 2024-04-09 01:19:27
高边缘覆盖 中山大桥化工新一代零部件电泳涂料PD12000成功应用 0.8 Daily 2024-04-09 01:19:19
新能源汽车增速发展底盘件设计变化对防腐提出新要求 0.8 Daily 2024-04-09 01:19:11
环氧树脂型阴极电泳漆募投项目可行性研究报告 0.8 Daily 2024-04-09 01:18:36
旭光村村民又投诉 有人烧废旧树脂桶 0.8 Daily 2024-04-09 01:18:28
电泳漆涂料项目商业计划书 0.8 Daily 2024-04-09 01:18:21
固化地坪施工流程有哪些呢?固化地坪施工必须要格外注意什么事项? 0.8 Daily 2024-04-09 01:15:43
混凝土固化剂地坪 金刚石开面机 0.8 Daily 2024-04-09 01:15:33
你了解什么是人造石吗?润品人造石开创高端新格局 0.8 Daily 2024-04-09 01:15:25
EDI常见的损坏原因及处理 0.8 Daily 2024-04-07 04:21:46
华鑫证券:给予三超新材买入评级 0.8 Daily 2024-04-07 04:21:37
一周最受欢迎丨Veja马德里新店讨论问候传统与现代性之间的共性平衡 0.8 Daily 2024-04-07 04:21:28
【资讯】再一家知名涂企扩产计划投建年产65万吨涂料项目 0.8 Daily 2024-04-07 04:21:18
华为、恒大加码汽车行业?其实涂料企业早就出手了 0.8 Daily 2024-04-07 04:20:49
水处理基本知识 纯水制备的辅助工艺 0.8 Daily 2024-03-31 08:21:31
宏昌电子2023年半年度董事会经营评述 0.8 Daily 2024-03-31 08:20:45
阿科力2023年半年度董事会运营评述 0.8 Daily 2024-03-31 08:20:37
【资讯】PPG全球第二大研发中心即将投入到正常的使用中创新将提速 0.8 Daily 2024-03-31 08:20:28
电泳漆漆膜涂层的去除办法有哪些? 0.8 Daily 2024-03-31 08:20:08
求奉告树脂用什么清洗 0.8 Daily 2024-03-31 08:19:59
阴极电泳漆树脂是什么 0.8 Daily 2024-03-31 08:19:50
edi超纯水设备标准报价 滨润 0.8 Daily 2024-03-29 12:36:45
化工去离子水设备 滨润 0.8 Daily 2024-03-29 12:36:37
去离子化工纯水设备 滨润 0.8 Daily 2024-03-29 12:36:29
去离子水设备公司 滨润 0.8 Daily 2024-03-23 06:24:18
宏昌电子:公司阻燃型树脂广泛供应于覆铜板(CCL)职业的大规模的公司包含日本松下、生益科技、超声电子、联茂等 0.8 Daily 2024-03-23 06:24:08
宏昌电子:下流相关车企有Continental(马牌)、APTIV(安波福)、Lear(李尔Denso(电装Bosch(博世GM(通用)等 0.8 Daily 2024-03-23 06:24:01
超快雷射超精细加工機 0.8 Daily 2024-03-21 06:18:18
电泳涂装常见涂膜弊端电泳漆再溶解其产生原因及防治办法 0.8 Daily 2024-03-21 06:18:08
智研咨询重磅发布2023年中国阴极电泳漆行业发展的新趋势研究报告 0.8 Daily 2024-03-21 06:18:00
电泳漆消泡剂:这回泡沫真的江郎才尽了 0.8 Daily 2024-03-21 06:17:51
65万吨年涂料项目行将开工!设备及原材料耗材清单发布! 0.8 Daily 2024-03-21 06:17:41
宏昌电子:公司运营稳健 全产全销 供货杰出 0.8 Daily 2024-03-21 06:17:31
这两大环氧企业签订《环氧树脂订购意向书 0.8 Daily 2024-03-21 06:17:22
【资讯】年产65万吨轿车涂料项目可带来年收入超13亿元 0.8 Daily 2024-03-21 06:17:12
视觉盛宴:旗舰馆启幕与6位行业大咖探索艺术生活 0.8 Daily 2024-03-08 09:09:34
全钢通风柜的长处 0.8 Daily 2024-03-08 09:09:26
宏昌电子:公司相关高频高速板材通过英特尔认证具体下游终端使用情况请以相关厂商发布的信息为准 0.8 Daily 2024-03-08 09:09:15
宏昌电子:公司与产业链相关企业保持良好交流。 0.8 Daily 2024-03-08 09:09:03
安徽聚氨酯脱漆剂运用方法及配方 0.8 Daily 2024-03-08 09:08:54
不同的环境中如何明智的选择正确的表面处理 0.8 Daily 2024-03-03 09:30:44
一个产业聚合千家企业(经济新方位·县域经济观察) 0.8 Daily 2024-03-03 09:30:34
再生型“UP6060”抛光树脂职业抢先材料初次揭露! 0.8 Daily 2024-03-03 09:30:26
螺钉表面处理工艺与抗腐蚀性总结很全面! 0.8 Daily 2024-03-03 09:30:15
金力泰回复年报问询函公司还面临投资者的索赔 0.8 Daily 2024-03-03 09:30:05
宏昌电子:企业首要从事电子级环氧树脂、覆铜板两大类产品的出产和出售产品下流应用到轿车电泳漆烤漆轿车用电路板等范畴 0.8 Daily 2024-03-03 09:29:57